Location: Bijele Vode
(45.2833°N, 16.2000°E)
Time: 14:21:05
(UTC+00:00)

USA 234 - Pass Details

Date: 18 September 2020
Orbit: 1102 x 1106 km, 123.0° (Epoch: 16 October)

Event Time Altitude Azimuth Distance (km) Brightness Sun altitude
Rises 20:15:57 0° 51° (NE) 3,926 6.1 -32.3°
Enters shadow 20:16:06 - 51° (NE) 3,872 6.1 -32.3°
Exits shadow 20:19:21 14° 46° (NE) 2,642 5.2 -32.7°
Maximum altitude 20:24:51 58° 332° (NNW) 1,271 3.7 -33.4°
Drops below altitude 10° 20:31:14 10° 255° (WSW) 2,961 5.8 -34.2°
Sets 20:33:45 0° 251° (WSW) 3,917 6.4 -34.5°
